Content
SEND FEEDBACK

Daily
Averages
Monthly
Summary
United States of America

ANN ARBOR, MICHIGAN


Home > North America > United States > Michigan
Elevation: 759 feet     Latitude: 42 17N     Longitude: 083 43W

WEATHER
 
SELECT A DAY
Number of Records: 202,962;   Date Range: 1/1/95 - 7/7/14
 
SHARE

PRINT THIS DATA

[ ← Previous Day ]
WEATHER ALMANAC - APRIL 7, 2013
[ Next Day → ]
[ °C ]   °F
Weather ElementAverageHighLow
Temperature52.5 °F57.9 °F (4:53 am)41 °F (11:53 pm)
Dewpoint36.1 °F44.1 °F (7:53 am)28 °F (1:53 am)
Humidity54.3 %67 % (9:31 am)33 % (1:53 am)
Barometer29.84 in30.04 in (11:53 pm)29.64 in (4:53 am)
Wind Speed14.9 mph23 mph (9:31 am)
Wind Gust32.2 mph (8:53 am)
Weather ElementAverage
Visibility10 mi
Wind DirectionWSW (243.5 °)

Weather ElementTotal
Precipitation---
Heating Degree Days15.6 (Base 65)
Averaged from 26 records on April 7, 2013
WEATHER CONDITIONS BREAKOUT
WIND DIRECTION BREAKOUT
WEATHER BY HOUR - APRIL 7, 2013
[ °C ]   °F
Local TimeTemperatureDewpointHumidityBarometerVisibilityWind DirectionWind SpeedGust SpeedPrecipitationEventsConditions
1:53 AM57.0 °F28.0 °F33 %29.73 in10.0 miSSW (200°)16.1 mph23.0 mphOvercast
2:53 AM55.9 °F32.0 °F40 %29.68 in10.0 miSouth (190°)12.7 mphOvercast
3:53 AM54.0 °F35.1 °F49 %29.66 in10.0 miSSW (210°)11.5 mphScattered Clouds
4:53 AM57.9 °F37.9 °F47 %29.64 in10.0 miSW (230°)15.0 mph25.3 mphMostly Cloudy
5:53 AM57.0 °F41.0 °F55 %29.64 in10.0 miSW (230°)18.4 mph25.3 mphClear
6:53 AM57.0 °F41.0 °F55 %29.65 in10.0 miSW (230°)19.6 mph27.6 mphMostly Cloudy
7:53 AM55.9 °F44.1 °F64 %29.69 in10.0 miWest (260°)20.7 mph27.6 mphOvercast
8:53 AM55.9 °F44.1 °F64 %29.72 in10.0 miWSW (250°)20.7 mph32.2 mphOvercast
9:31 AM53.6 °F42.8 °F67 %29.74 in10.0 miWest (270°)23.0 mph29.9 mphOvercast
9:53 AM55.0 °F42.1 °F62 %29.75 in10.0 miWest (280°)21.9 mph32.2 mphOvercast
10:53 AM52.0 °F39.9 °F63 %29.81 in10.0 miWest (280°)18.4 mph32.2 mphOvercast
11:53 AM51.1 °F39.0 °F63 %29.83 in10.0 miWNW (290°)21.9 mph31.1 mphOvercast
12:14 PM51.8 °F37.4 °F58 %29.84 in10.0 miWest (280°)18.4 mph27.6 mphOvercast
12:53 PM52.0 °F37.0 °F57 %29.86 in10.0 miWNW (300°)15.0 mph27.6 mphOvercast
1:44 PM53.6 °F37.4 °F54 %29.87 in10.0 miWest (280°)18.4 mph26.5 mphOvercast
1:53 PM52.0 °F36.0 °F54 %29.88 in10.0 miWest (270°)19.6 mph27.6 mphOvercast
2:53 PM53.1 °F35.1 °F50 %29.91 in10.0 miWNW (300°)18.4 mph21.9 mphMostly Cloudy
3:53 PM53.1 °F34.0 °F48 %29.93 in10.0 miNW (310°)12.7 mph20.7 mphPartly Cloudy
4:53 PM55.0 °F33.1 °F43 %29.94 in10.0 miWest (280°)11.5 mph20.7 mphClear
5:53 PM55.0 °F32.0 °F42 %29.96 in10.0 miWNW (290°)13.8 mph21.9 mphClear
6:53 PM52.0 °F32.0 °F47 %29.97 in10.0 miNW (310°)8.1 mphClear
7:53 PM48.9 °F30.9 °F50 %29.98 in10.0 miNW (320°)4.6 mphClear
8:53 PM46.9 °F32.0 °F56 %30.00 in10.0 miNorth (360°)6.9 mphClear
9:53 PM44.1 °F30.9 °F60 %30.01 in10.0 miNNE (20°)6.9 mphClear
10:53 PM43.0 °F32.0 °F65 %30.02 in10.0 miNNE (20°)9.2 mphClear
11:53 PM41.0 °F30.9 °F67 %30.04 in10.0 miENE (70°)3.5 mphClear
Hourly data recorded from KARB, located miles away from Ann Arbor, Michigan







STORIES FROM OUR PARTNERS